This is the latest recevied weather packets stored in our database for station/object K0QED. If no packets are shown the sender has not sent any weather packets the latest 10 day(s).
| Time | Temp. | Humidity | Pressure | Rain* | Wind** | Luminosity | Snow |
|---|---|---|---|---|---|---|---|
| 1788243112 | 12.78° C | 87% | 1027.1 hPa | 0 mm | - | 0 W/m² | - |
| 1788242807 | 12.78° C | 87% | 1027.2 hPa | 0 mm | - | 0 W/m² | - |
| 1788242503 | 12.78° C | 87% | 1027.4 hPa | 0 mm | - | 0 W/m² | - |
| 1788242198 | 13.33° C | 86% | 1027 hPa | 0 mm | - | 0 W/m² | - |
| 1788241895 | 13.33° C | 86% | 1027.4 hPa | 0 mm | - | 0 W/m² | - |
| 1788241591 | 13.33° C | 85% | 1027.2 hPa | 0 mm | - | 0 W/m² | - |
| 1788241287 | 13.33° C | 86% | 1027.2 hPa | 0 mm | - | 0 W/m² | - |
| 1788240983 | 13.33° C | 86% | 1027.5 hPa | 0 mm | - | 0 W/m² | - |
| 1788240679 | 13.33° C | 85% | 1027.4 hPa | 0 mm | - | 0 W/m² | - |
| 1788240379 | 13.33° C | 85% | 1027.2 hPa | 0 mm | - | 0 W/m² | - |
| 1788240074 | 13.89° C | 84% | 1027.4 hPa | 0 mm | - | 0 W/m² | - |
| 1788239774 | 13.89° C | 84% | 1027.5 hPa | 0 mm | - | 0 W/m² | - |
| 1788239472 | 13.89° C | 83% | 1027.5 hPa | 0 mm | - | 0 W/m² | - |
| 1788239168 | 13.89° C | 85% | 1027.7 hPa | 0 mm | - | 0 W/m² | - |
| 1788238863 | 13.89° C | 85% | 1027.7 hPa | 0 mm | - | 0 W/m² | - |
| 1788238557 | 13.89° C | 87% | 1027.6 hPa | 0 mm | - | 0 W/m² | - |
| 1788238252 | 13.33° C | 87% | 1027.7 hPa | 0 mm | - | 0 W/m² | - |
| 1788237948 | 13.33° C | 89% | 1027.6 hPa | 0 mm | - | 0 W/m² | - |
| 1788237644 | 13.33° C | 88% | 1027.6 hPa | 0 mm | - | 0 W/m² | - |
| 1788237339 | 13.33° C | 90% | 1027.7 hPa | 0 mm | - | 0 W/m² | - |
| 1788237035 | 13.33° C | 90% | 1027.9 hPa | 0 mm | - | 0 W/m² | - |
| 1788236734 | 12.78° C | 91% | 1028.2 hPa | 0 mm | - | 0 W/m² | - |
| 1788236430 | 12.22° C | 93% | 1028 hPa | 0 mm | - | 0 W/m² | - |
| 1788236125 | 12.22° C | 94% | 1028 hPa | 0 mm | - | 0 W/m² | - |
| 1788235819 | 12.22° C | 94% | 1027.9 hPa | 0 mm | - | 0 W/m² | - |
* Rain latest hour (hover to see other rain measurements)
** Current wind speed in m/s (hover to see current wind gust speed)